Date String (YYYY-MM-DD hh:mm:ss) UTC,Instrument flags,Ambient pressure (hPa),Sample flow (lpm),Bypass flow (lpm),Sample temperature (°C),Ambient temperature (°C),ASC tube jacket temperature (°C),LED temperature (°C),Box temperature (°C),Sample RH (%),Span deviation,Mass concentration (μg/m³),Mass concentration (μg/m³),Mass concentration (μg/m³)
DateTimeUTC,F1_M11,P_M11,Q1_M11,Q2_M11,T1_M11,T2_M11,T3_M11,T4_M11,T5_M11,U1_M11,ZSPAN_M11,X0_M11,X2_M11,X1_M11
2022-05-31 08:00:00,,0821.7,5.01,0.00,24.6,23.7,00.0,33.5,26.6,13.2,0000.0,0004.55,0001.04,0000.61
2022-05-31 08:01:00,,0821.7,5.01,0.00,24.7,23.7,00.0,33.5,26.6,13.1,0000.0,0003.99,0001.05,0000.60
2022-05-31 08:02:00,,0821.7,4.99,0.00,24.7,23.7,00.0,33.5,26.6,13.3,0000.0,0004.11,0001.08,0000.60
2022-05-31 08:03:00,,0821.6,5.00,0.00,24.7,23.7,00.0,33.5,26.6,13.5,0000.0,0004.23,0001.07,0000.59
2022-05-31 08:04:00,,0821.7,5.00,0.00,24.7,23.7,00.0,33.5,26.6,13.3,0000.0,0004.17,0001.06,0000.59
2022-05-31 08:05:00,,0821.7,5.01,0.00,24.7,23.7,00.0,33.6,26.6,13.1,0000.0,0004.02,0001.04,0000.57
2022-05-31 08:06:00,,0821.7,4.99,0.00,24.7,23.7,00.0,33.6,26.6,13.0,0000.0,0003.39,0001.02,0000.56
2022-05-31 08:07:00,,0821.7,5.00,0.00,24.7,23.7,00.0,33.6,26.6,13.0,0000.0,0002.94,0000.98,0000.56
2022-05-31 08:08:00,,0821.7,5.00,0.00,24.7,23.7,00.0,33.6,26.6,13.1,0000.0,0002.91,0000.97,0000.55
2022-05-31 08:09:00,,0821.7,5.00,0.00,24.7,23.7,00.0,33.6,26.6,13.1,0000.0,0002.96,0000.98,0000.54
2022-05-31 08:10:00,,0821.9,5.00,0.00,24.7,23.7,00.0,33.6,26.6,13.0,0000.0,0002.68,0000.99,0000.54
2022-05-31 08:11:00,,0821.9,5.00,0.00,24.7,23.7,00.0,33.6,26.6,12.9,0000.0,0001.94,0000.99,0000.53
2022-05-31 08:12:00,,0821.8,4.99,0.00,24.7,23.7,00.0,33.6,26.6,12.8,0000.0,0001.89,0000.97,0000.53
2022-05-31 08:13:00,,0821.7,5.01,0.00,24.7,23.7,00.0,33.6,26.6,12.7,0000.0,0002.13,0000.96,0000.54
2022-05-31 08:14:00,,0822.1,4.99,0.00,24.7,23.7,00.0,33.6,26.6,12.7,0000.0,0002.15,0000.96,0000.53
2022-05-31 08:15:00,,0822.0,4.99,0.00,24.7,23.6,00.0,33.6,26.6,12.7,0000.0,0002.10,0000.95,0000.54
2022-05-31 08:16:00,,0821.8,5.00,0.00,24.7,23.6,00.0,33.6,26.6,12.6,0000.0,0002.05,0000.93,0000.54
2022-05-31 08:17:00,,0821.9,5.01,0.00,24.7,23.6,00.0,33.6,26.6,12.6,0000.0,0002.00,0000.92,0000.54
2022-05-31 08:18:00,,0821.8,4.99,0.00,24.7,23.6,00.0,33.6,26.6,12.5,0000.0,0002.04,0000.92,0000.53
2022-05-31 08:19:00,,0821.9,5.01,0.00,24.7,23.6,00.0,33.6,26.6,12.5,0000.0,0002.03,0000.91,0000.53
2022-05-31 08:20:00,,0821.9,4.99,0.00,24.7,23.7,00.0,33.6,26.6,12.5,0000.0,0001.83,0000.83,0000.53
2022-05-31 08:21:00,,0822.0,5.01,0.00,24.7,23.7,00.0,33.6,26.6,12.5,0000.0,0001.82,0000.82,0000.52
2022-05-31 08:22:00,,0822.0,5.00,0.00,24.7,23.7,00.0,33.6,26.6,12.5,0000.0,0001.79,0000.79,0000.53
2022-05-31 08:23:00,,0822.1,5.00,0.00,24.7,23.7,00.0,33.6,26.7,12.6,0000.0,0001.77,0000.78,0000.52
2022-05-31 08:24:00,,0822.1,5.01,0.00,24.7,23.7,00.0,33.6,26.7,13.6,0000.0,0001.52,0000.75,0000.53
2022-05-31 08:25:00,,0822.1,5.00,0.00,24.7,23.7,00.0,33.6,26.6,13.6,0000.0,0001.18,0000.74,0000.53
2022-05-31 08:26:00,,0822.1,4.99,0.00,24.7,23.7,00.0,33.6,26.6,13.4,0000.0,0001.19,0000.75,0000.54
2022-05-31 08:27:00,,0822.1,5.01,0.00,24.7,23.7,00.0,33.6,26.6,13.3,0000.0,0001.85,0000.78,0000.54
2022-05-31 08:28:00,,0822.1,4.99,0.00,24.6,23.6,00.0,33.6,26.6,13.1,0000.0,0001.87,0000.78,0000.54
2022-05-31 08:29:00,,0822.1,5.01,0.00,24.6,23.6,00.0,33.6,26.5,13.1,0000.0,0001.79,0000.76,0000.55
2022-05-31 08:30:00,,0822.1,5.00,0.00,24.6,23.6,00.0,33.6,26.5,12.9,0000.0,0001.74,0000.75,0000.55
2022-05-31 08:31:00,,0822.1,5.00,0.00,24.6,23.6,00.0,33.6,26.5,12.9,0000.0,0001.79,0000.77,0000.57
2022-05-31 08:32:00,,0822.2,5.00,0.00,24.6,23.5,00.0,33.6,26.5,12.8,0000.0,0001.81,0000.77,0000.57
2022-05-31 08:33:00,,0822.2,5.00,0.00,24.6,23.5,00.0,33.6,26.4,12.6,0000.0,0001.79,0000.77,0000.58
2022-05-31 08:34:00,,0822.2,5.01,0.00,24.6,23.5,00.0,33.6,26.4,12.7,0000.0,0001.88,0000.80,0000.58
2022-05-31 08:35:00,,0822.2,4.99,0.00,24.6,23.5,00.0,33.6,26.4,12.8,0000.0,0001.96,0000.82,0000.58
2022-05-31 08:36:00,,0822.2,5.00,0.00,24.5,23.5,00.0,33.6,26.4,12.6,0000.0,0002.00,0000.83,0000.59
2022-05-31 08:37:00,,0822.2,5.00,0.00,24.5,23.5,00.0,33.5,26.4,12.8,0000.0,0001.96,0000.81,0000.58
2022-05-31 08:38:00,,0822.2,4.99,0.00,24.5,23.5,00.0,33.5,26.4,13.0,0000.0,0001.46,0000.79,0000.58
2022-05-31 08:39:00,,0822.2,5.01,0.00,24.5,23.5,00.0,33.5,26.4,13.0,0000.0,0001.35,0000.79,0000.58
2022-05-31 08:40:00,,0822.2,4.99,0.00,24.5,23.5,00.0,33.5,26.4,13.0,0000.0,0001.37,0000.80,0000.58
2022-05-31 08:41:00,,0822.2,5.01,0.00,24.5,23.5,00.0,33.5,26.5,13.1,0000.0,0001.41,0000.83,0000.58
2022-05-31 08:42:00,,0822.2,4.99,0.00,24.6,23.5,00.0,33.5,26.5,13.0,0000.0,0001.42,0000.84,0000.57
2022-05-31 08:43:00,,0822.2,5.00,0.00,24.6,23.5,00.0,33.5,26.5,12.9,0000.0,0001.33,0000.82,0000.56
2022-05-31 08:44:00,,0822.2,5.01,0.00,24.6,23.5,00.0,33.5,26.5,13.1,0000.0,0001.70,0000.84,0000.56
2022-05-31 08:45:00,,0822.2,4.99,0.00,24.6,23.6,00.0,33.5,26.5,13.2,0000.0,0001.82,0000.85,0000.55
2022-05-31 08:46:00,,0822.3,5.00,0.00,24.6,23.6,00.0,33.5,26.5,12.9,0000.0,0002.08,0000.85,0000.55
2022-05-31 08:47:00,,0822.3,5.00,0.00,24.6,23.6,00.0,33.5,26.6,12.5,0000.0,0002.08,0000.84,0000.54
2022-05-31 08:48:00,,0822.3,5.00,0.00,24.6,23.6,00.0,33.5,26.6,12.2,0000.0,0002.18,0000.87,0000.54
2022-05-31 08:49:00,,0822.3,4.99,0.00,24.6,23.6,00.0,33.5,26.6,12.3,0000.0,0002.21,0000.88,0000.54
2022-05-31 08:50:00,,0822.3,5.01,0.00,24.6,23.7,00.0,33.5,26.6,12.8,0000.0,0002.24,0000.89,0000.55
2022-05-31 08:51:00,,0822.3,4.99,0.00,24.6,23.7,00.0,33.5,26.6,12.7,0000.0,0002.31,0000.90,0000.55
2022-05-31 08:52:00,,0822.3,5.01,0.00,24.6,23.7,00.0,33.5,26.6,12.5,0000.0,0002.34,0000.91,0000.55
2022-05-31 08:53:00,,0822.3,5.00,0.00,24.6,23.7,00.0,33.5,26.6,12.5,0000.0,0002.42,0000.92,0000.56
2022-05-31 08:54:00,,0822.3,5.00,0.00,24.7,23.7,00.0,33.5,26.6,12.6,0000.0,0002.39,0000.90,0000.55
2022-05-31 08:55:00,,0822.3,5.00,0.00,24.7,23.7,00.0,33.5,26.6,12.4,0000.0,0002.37,0000.94,0000.56
2022-05-31 08:56:00,,0822.3,4.99,0.00,24.7,23.7,00.0,33.5,26.6,12.4,0000.0,0002.08,0000.93,0000.57
2022-05-31 08:57:00,,0822.3,5.01,0.00,24.7,23.7,00.0,33.6,26.6,12.5,0000.0,0001.78,0000.90,0000.56
2022-05-31 08:58:00,,0822.4,4.99,0.00,24.7,23.7,00.0,33.6,26.6,12.6,0000.0,0001.71,0000.89,0000.56
2022-05-31 08:59:00,,0822.4,5.01,0.00,24.7,23.7,00.0,33.6,26.6,12.4,0000.0,0001.59,0000.85,0000.56
